Starlink 4307

operational
NORAD ID: 53063 Int'l Des: 2022-077 Owner: SPXS Country: US Constellation: starlink
LEOCIRCULARRETROGRADESSO

About Starlink 4307

Description loading...

Live Position

Loading 3D Globe...

Upcoming Passes

Altitude History

Altitude vs Time

uPlot chart will show altitude changes over time

Two-Line Element Set

1 53063U 22077W 25303.23801713 .00001854 00000-0 13268-3 0 9994
2 53063 97.6043 122.5741 0002280 90.5250 269.6238 15.05651088 52937
Epoch: Oct 30, 2025 • Age: 15 hours

Current Status

Altitude 577.1 km
Velocity 7.57 km/s
Sub-Earth Point -69.56°S, 74.77°W
Launch Date Jul 11, 2022
Age 3.3 years
Type internet

Technical Details

Classification Payload
Mass 297.00 kg
Dry Mass 275.00 kg
Total Mass 297.00 kg
Length 0.20 m
Diameter 2.80 m
Span 9.00 m
Shape Box + pan
Manufacturer SPXS
Bus Type Starlink
Phase Status In Orbit
Owner/State SPXS/US

Large Constellations

Loading constellations...